Location: Jetmore Oil Field
(38.1181°N, 99.9337°W)
Time: 01:40:21
(UTC+00:00)

Centaur D AC-28 - Pass Details

Date: 17 February 2020
Orbit: 619 x 36436 km, 28.5° (Epoch: 09 April)

Event Time Altitude Azimuth Distance (km) Brightness Sun altitude
Rises 00:32:09 0° 254° (WSW) 15,558 11.8 -3.3°
Reaches altitude 10° 00:52:28 10° 251° (WSW) 9,032 9.1 -7.3°
Maximum altitude 01:10:52 42° 187° (S) 1,914 4.1 -10.8°
Enters shadow 01:15:27 11° 115° (ESE) 2,375 4.0 -11.7°
